レモン彗星

C/2007 K1 ( Lemmon )

English version
Home page
Updated on May 9, 2009

---------------------------------------------------------------------

・ プロフィール

発見日 2007年5月18日
発見光度 20.4等
発見者 Mt. Lemmon Survey

・ 軌道要素

The following orbital elements are taken from MPC 63135:

Epoch 2007 May 20.0 TT = JDT 2454240.5
T 2007 May 7.5877 TT                                    MPC
q   9.239077             (2000.0)            P               Q
z  +0.002307       Peri.   51.9683      +0.0307278      -0.5057169
 +/-0.000004       Node   294.6623      -0.9062905      +0.3496757
e   0.978688       Incl.  108.4339      +0.4215369      +0.7886554
From 125 observations 2007 May 18-2008 May 28, mean residual 0".5.

・ 光度変化

        m1 = 5.5 + 5 logΔ + 10.0 log r

---------------------------------------------------------------------

軌道要素はMPCのEphemerides and Orbital Elementsに掲載されたものです。
光度グラフはComet for Windowsで作成したものです。

---------------------------------------------------------------------

Copyright(C) Seiichi Yoshida (comet@aerith.net). All rights reserved.